Location: Observatoires du Mont Megantic
(45.4500°N, 71.1500°W)
Time: 05:22:50
(UTC-04:00)

OTV 5 (USA 277) - Visible Passes

Search period start: 24 June 2018 00:00
Search period end: 04 July 2018 00:00
Orbit: 313 x 320 km, 54.5° (Epoch: 21 June)

Date Brightness Start Highest point End Pass type
(mag) Time Alt. Az. Time Alt. Az. Time Alt. Az.
24 Jun ? 00:14:15 10° NW 00:16:42 29° NNE 00:16:52 29° NE visible
24 Jun ? 21:19:56 10° NW 21:21:19 13° N 21:22:43 10° NNE visible
24 Jun ? 22:54:42 10° NNW 22:56:28 16° NNE 22:58:14 10° NE visible
25 Jun ? 00:28:32 10° NW 00:30:05 30° NW 00:30:05 30° NW visible
25 Jun ? 21:34:51 10° NNW 21:36:06 12° N 21:37:21 10° NNE visible
25 Jun ? 23:08:55 10° NW 23:11:09 22° NNE 23:12:34 15° ENE visible
26 Jun ? 00:42:59 10° WNW 00:43:24 13° WNW 00:43:24 13° WNW visible
26 Jun ? 21:49:20 10° NNW 21:50:52 14° N 21:52:24 10° NE visible
26 Jun ? 23:23:09 10° NW 23:25:44 40° NNE 23:25:57 39° NE visible
27 Jun ? 22:03:36 10° NNW 22:05:35 18° NNE 22:07:35 10° ENE visible
27 Jun ? 23:37:29 10° NW 23:39:24 41° WNW 23:39:24 41° WNW visible
28 Jun ? 22:17:47 10° NW 22:20:13 29° NNE 22:22:03 14° E visible
28 Jun ? 23:52:06 10° WNW 23:52:54 16° W 23:52:54 16° W visible
29 Jun ? 22:32:04 10° NW 22:34:45 61° NNE 22:35:36 36° E visible
30 Jun ? 21:12:28 10° NNW 21:14:41 22° NNE 21:16:54 10° ENE visible
30 Jun ? 22:46:31 10° WNW 22:49:09 49° SW 22:49:12 49° SW visible
01 Jul ? 21:26:41 10° NW 21:29:16 40° NNE 21:31:50 10° ESE visible
01 Jul ? 23:01:23 10° W 23:02:51 18° WSW 23:02:51 18° WSW visible
02 Jul ? 21:41:02 10° NW 21:43:43 84° SW 21:45:42 16° SE visible
03 Jul ? 21:55:38 10° WNW 21:58:03 30° SW 21:59:27 18° S visible
